This demonstration page uses our WeatherBlox Daily Observations layout. Learn more.

Hourly Observations for October 30, 2020

Temp ( °F °C ) Dew Point ( °F °C ) Humidity (%) Winds ( mph kmh ) Pressure ( in mb ) Visibility ( mi km ) Precip ( " mm )
12:54 am 00:54 Clear 33 0.6 22 -5.6 64 64 S 5 7 30.17 1022 10 16.0934 0 0
1:54 am 01:54 Clear 32 0 23 -5 69 69 SSE 6 9 30.17 1022 10 16.0934 0 0
2:54 am 02:54 Clear 32 0 24 -4.4 73 73 SSE 7 11 30.15 1021 10 16.0934 0 0
3:54 am 03:54 Clear 34 1.1 24 -4.4 67 67 Calm 30.16 1021 10 16.0934 0 0
4:54 am 04:54 Clear 32 0 24 -4.4 73 73 S 3 6 30.14 1021 10 16.0934 0 0
5:54 am 05:54 Clear 32 0 24 -4.4 73 73 Calm 30.15 1021 10 16.0934 0 0
6:54 am 06:54 Clear 30 -1.1 23 -5 75 75 Calm 30.18 1022 10 16.0934 0 0
7:54 am 07:54 Clear 25 -3.9 20 -6.7 81 81 N 3 6 30.19 1022 10 16.0934 0 0
8:54 am 08:54 Sunny 32 0 24 -4.4 73 73 Calm 30.21 1023 10 16.0934 0 0
9:54 am 09:54 Sunny 38 3.3 28 -2.2 68 68 Calm 30.23 1024 10 16.0934 0 0
10:54 am 10:54 Sunny 43 6.1 30 -1.1 60 60 NNW 6 9 30.23 1024 10 16.0934 0 0
11:54 am 11:54 Sunny 50 10 32 0 50 50 NW 5 7 30.22 1024 10 16.0934 0 0
12:54 pm 12:54 Sunny 55 12.8 34 1.1 45 45 VRB 3 6 30.22 1023 10 16.0934 0 0
1:54 pm 13:54 Sunny 59 15 34 1.1 39 39 VRB 5 7 30.18 1022 10 16.0934 0 0
2:54 pm 14:54 Sunny 61 16.1 35 1.7 38 38 ESE 6 9 30.15 1021 10 16.0934 0 0
3:54 pm 15:54 Sunny 64 17.8 36 2.2 35 35 VRB 5 7 30.13 1020 10 16.0934 0 0
4:54 pm 16:54 Sunny 64 17.8 36 2.2 35 35 E 8 13 30.11 1020 10 16.0934 0 0
5:54 pm 17:54 Sunny 59 15 36 2.2 42 42 ESE 8 13 30.11 1020 10 16.0934 0 0
6:54 pm 18:54 Clear 54 12.2 35 1.7 49 49 ESE 7 11 30.11 1020 10 16.0934 0 0
7:54 pm 19:54 Clear 52 11.1 35 1.7 53 53 SE 8 13 30.11 1020 10 16.0934 0 0
8:54 pm 20:54 Clear 51 10.6 35 1.7 54 54 SE 8 13 30.1 1019 10 16.0934 0 0
9:54 pm 21:54 Clear 51 10.6 36 2.2 56 56 SSE 9 15 30.07 1018 10 16.0934 0 0
10:54 pm 22:54 Clear 49 9.4 36 2.2 61 61 SSE 10 17 30.06 1018 10 16.0934 0 0
11:54 pm 23:54 Clear 47 8.3 36 2.2 66 66 S 10 17 30.04 1017 10 16.0934 0 0

Powered by AerisWeather